Location: Newark
(45.5000°N, 11.4167°E)
Time: 10:02:38
(UTC+00:00)

Altair - Pass Details

Date: 27 August 2019
Orbit: 1501 x 1683 km, 47.2° (Epoch: 14 September)

Event Time Altitude Azimuth Distance (km) Brightness Sun altitude
Exits shadow 22:56:45 17° 99° (E) 3,299 9.1 -34.4°
Drops below altitude 10° 22:59:42 10° 83° (E) 3,833 9.6 -34.5°
Sets 23:03:39 0° 69° (ENE) 4,791 10.3 -34.5°
